STARLINK-2453, 47845

Orbit data source: Space-Track

STARLINK-2453, 47845 is a payload satellite owned by SpaceX/Seattle (US) in LEO that was launched on Thu, 11 Mar 2021 UTC via an FALCON 9 launch vehicle from the Air Force Eastern Test Range (AFETR). Payload-class satellites include a variety of spacecraft equipped with specific instruments for various scientific and technological missions. These include communications satellites like Starlink; space stations such as the ISS; scientific satellites like the Hubble; Earth observation satellites from companies like Planet Labs, Umbra, and HawkEye 360; GPS; miniature CubeSats for education and research; and military/defense satellites.

Loading next visibility...
Identifier
47845, 2021-018BL
Orbit
LEO
Country
Flag of USUS
Related business
Manufacturer
SpaceX/Seattle
Mission
Operational Commercial Communications
Bus & Motor
STARLINK, Unknown motor
Mass
260 kg wet, ~248 kg dry
Launch date (UTC)
2021-03-11 (5 years ago)
Launch vehicle
FALCON 9
Launch site
Air Force Eastern Test Range (AFETR)
Object type
Payload
Rocket body
Debris
Shape & HBR
Box + 1 Pan, 10.1 m
Radar Cross Section
13.562 m², Large (>1 m²)

Expand to show TLE details & history
Last TLE update: 10 hours ago

TLE from 10 hours ago
0 STARLINK-2453
1 47845U 21018BL  26120.11003830  .00009036  00000-0  32504-3 0  9992
2 47845  53.1569  19.2377 0001745  99.9254 260.1943 15.29359490284379
Epoch: 2026-04-30T02:38Z
TLE epoch observation values (Epoch: 2026-04-30T02:38:27.309Z)
Latitude
-0.00003°
Longitude
121.56253°
Altitude
478.829 km
Speed
7.627 km/s
True Right ascension
01h 16m 57s
True Declination
0° 00' 00"
Sunlit
Object was in daylight at epoch
Visualization orbit readout
Latitude
Unknown
Longitude
Unknown
Altitude
Unknown
Speed
Unknown
Apparent Right ascension
Unknown
Apparent Declination
Unknown
Sunlit
N/A
Visualization observer readout
Local Sidereal Time
20:12:33
Azimuth
Unknown
Elevation
Unknown
Doppler factor
Unknown
Orbital elements
Apogee altitude
479.179 km
Perigee altitude
476.786 km
Semi-major axis
6,856.12 km
Eccentricity
0.00017
Inclination
53.1569°
RAAN
19.2377°
Arg. of periapsis
99.9254°
True anomaly
260.1746°
Mean anomaly
260.1943°
Eccentric anomaly
260.18445°
Mean motion
3.82319 °/min
Orbital period
94.16 mins
BSTAR
0.00032504
Loading maneuver chart data...
Computing Atmospheric mass density...
Loading historical data...
Loading historical data...
Loading historical data...
Loading historical data...
Loading historical data...
Loading historical data...
Loading historical data...

Documentation

Showing up to 5 results
|